| time (UTC) | temp C | wind direction | speed KPH | gust KPH | rain 1hr cm | rain 24hr cm | rain mn cm | humidity % | barometer mb |
| 20260504175017 | 10 | 174 | 8.0 | 25.7 | 0.03 | 0.03 | 0.03 | 57 | 1015.2 |
| 20260504160208 | 11 | 236 | 0.0 | 8.0 | 0.00 | 0.00 | 0.00 | 52 | 1015.4 |
| 20260504151056 | 11 | 180 | 3.2 | 9.7 | 0.00 | 0.00 | 0.00 | 52 | 1016.0 |
| 20260504150553 | 11 | 209 | 4.8 | 12.9 | 0.00 | 0.00 | 0.00 | 50 | 1016.0 |
| 20260504150119 | 12 | 207 | 4.8 | 12.9 | 0.00 | 0.00 | 0.00 | 49 | 1015.8 |
| 20260504141115 | 8 | 154 | 4.8 | 16.1 | 0.00 | 0.00 | 0.00 | 59 | 1015.7 |
| 20260504140621 | 8 | 178 | 3.2 | 16.1 | 0.00 | 0.00 | 0.00 | 59 | 1015.7 |
| 20260504140112 | 8 | 159 | 4.8 | 14.5 | 0.00 | 0.00 | 0.00 | 59 | 1015.6 |
| 20260504130612 | 8 | 143 | 9.7 | 20.9 | 0.00 | 0.00 | 0.00 | 59 | 1014.9 |
| 20260504130109 | 8 | 144 | 8.0 | 14.5 | 0.00 | 0.00 | 0.00 | 59 | 1014.6 |
| 20260504120255 | 8 | 184 | 6.4 | 16.1 | 0.00 | 0.00 | 0.00 | 57 | 1014.8 |
| 20260504120154 | 8 | 161 | 8.0 | 14.5 | 0.00 | 0.00 | 0.00 | 57 | 1014.8 |
| 20260504120130 | 8 | 152 | 4.8 | 14.5 | 0.00 | 0.00 | 0.00 | 56 | 1014.9 |
| 20260504090140 | 10 | 169 | 6.4 | 17.7 | 0.00 | 0.00 | 0.00 | 33 | 1014.5 |
| 20260504070201 | 10 | 139 | 1.6 | 6.4 | 0.00 | 0.00 | 0.00 | 28 | 1014.7 |
| 20260504050607 | 11 | 136 | 1.6 | 6.4 | 0.00 | 0.00 | 0.00 | 30 | 1015.5 |
| 20260504050204 | 11 | 129 | 3.2 | 6.4 | 0.00 | 0.00 | 0.00 | 30 | 1015.5 |
| 20260504045624 | 11 | 126 | 1.6 | 6.4 | 0.00 | 0.00 | 0.00 | 30 | 1015.7 |
| 20260504045115 | 11 | 128 | 1.6 | 6.4 | 0.00 | 0.00 | 0.00 | 29 | 1015.7 |
| 20260504044633 | 11 | 134 | 1.6 | 4.8 | 0.00 | 0.00 | 0.00 | 29 | 1015.6 |
| 20260504044112 | 11 | 142 | 1.6 | 4.8 | 0.00 | 0.00 | 0.00 | 29 | 1015.8 |
| 20260504043627 | 11 | 126 | 1.6 | 6.4 | 0.00 | 0.00 | 0.00 | 29 | 1015.7 |
| 20260504043210 | 11 | 131 | 1.6 | 6.4 | 0.00 | 0.00 | 0.00 | 29 | 1015.8 |
| 20260504042606 | 11 | 131 | 1.6 | 6.4 | 0.00 | 0.00 | 0.00 | 28 | 1015.9 |
| 20260504042112 | 12 | 122 | 0.0 | 3.2 | 0.00 | 0.00 | 0.00 | 28 | 1015.9 |
| 20260504041653 | 12 | 159 | 0.0 | 3.2 | 0.00 | 0.00 | 0.00 | 27 | 1015.9 |
| 20260504041052 | 12 | 150 | 1.6 | 3.2 | 0.00 | 0.00 | 0.00 | 26 | 1015.9 |
| 20260504040614 | 12 | 144 | 0.0 | 3.2 | 0.00 | 0.00 | 0.00 | 26 | 1016.0 |
| 20260504040205 | 12 | 164 | 0.0 | 4.8 | 0.00 | 0.00 | 0.00 | 26 | 1016.0 |
| 20260504035622 | 12 | 211 | 0.0 | 3.2 | 0.00 | 0.00 | 0.00 | 25 | 1015.9 |
| 20260504035027 | 13 | 220 | 0.0 | 3.2 | 0.00 | 0.00 | 0.00 | 23 | 1016.0 |
| 20260504034646 | 13 | 220 | 0.0 | 4.8 | 0.00 | 0.00 | 0.00 | 23 | 1016.1 |
| 20260504034052 | 13 | 219 | 1.6 | 4.8 | 0.00 | 0.00 | 0.00 | 23 | 1016.2 |
| 20260504033608 | 13 | 15 | 0.0 | 3.2 | 0.00 | 0.00 | 0.00 | 22 | 1016.0 |
| 20260504033203 | 13 | 15 | 0.0 | 1.6 | 0.00 | 0.00 | 0.00 | 22 | 1015.8 |
| 20260504032601 | 13 | 15 | 0.0 | 3.2 | 0.00 | 0.00 | 0.00 | 22 | 1015.7 |
| 20260504032114 | 13 | 15 | 1.6 | 4.8 | 0.00 | 0.00 | 0.00 | 22 | 1015.7 |
| 20260504031658 | 13 | 15 | 1.6 | 6.4 | 0.00 | 0.00 | 0.00 | 21 | 1015.8 |
| 20260504031114 | 13 | 29 | 0.0 | 4.8 | 0.00 | 0.00 | 0.00 | 21 | 1015.7 |
| 20260504030600 | 13 | 30 | 1.6 | 4.8 | 0.00 | 0.00 | 0.00 | 22 | 1015.8 |
| 20260504030210 | 13 | 12 | 1.6 | 4.8 | 0.00 | 0.00 | 0.00 | 22 | 1015.8 |
| 20260504025601 | 13 | 13 | 1.6 | 4.8 | 0.00 | 0.00 | 0.00 | 24 | 1015.8 |
| 20260504025107 | 13 | 302 | 1.6 | 6.4 | 0.00 | 0.00 | 0.00 | 23 | 1015.8 |
| 20260504024615 | 13 | 284 | 1.6 | 6.4 | 0.00 | 0.00 | 0.00 | 23 | 1015.8 |
| 20260504024056 | 13 | 264 | 1.6 | 4.8 | 0.00 | 0.00 | 0.00 | 23 | 1015.8 |
| 20260504023602 | 13 | 251 | 1.6 | 8.0 | 0.00 | 0.00 | 0.00 | 23 | 1015.8 |
| 20260504023153 | 13 | 279 | 1.6 | 8.0 | 0.00 | 0.00 | 0.00 | 23 | 1015.7 |
| 20260504022727 | 13 | 266 | 3.2 | 9.7 | 0.00 | 0.00 | 0.00 | 22 | 1015.8 |
| 20260504022625 | 13 | 255 | 1.6 | 9.7 | 0.00 | 0.00 | 0.00 | 23 | 1015.7 |
| 20260504022523 | 14 | 225 | 3.2 | 9.7 | 0.00 | 0.00 | 0.00 | 23 | 1015.8 |
| 20260504022421 | 14 | 251 | 1.6 | 6.4 | 0.00 | 0.00 | 0.00 | 23 | 1015.9 |
| 20260504020551 | 14 | 250 | 1.6 | 9.7 | 0.00 | 0.00 | 0.00 | 23 | 1015.9 |
| 20260504020115 | 14 | 233 | 3.2 | 9.7 | 0.00 | 0.00 | 0.00 | 23 | 1015.9 |
| 20260504015611 | 15 | 260 | 1.6 | 4.8 | 0.00 | 0.00 | 0.00 | 23 | 1016.0 |
| 20260504015123 | 15 | 248 | 0.0 | 3.2 | 0.00 | 0.00 | 0.00 | 23 | 1016.0 |
| 20260504014559 | 15 | 257 | 0.0 | 8.0 | 0.00 | 0.00 | 0.00 | 23 | 1015.9 |
| 20260504014120 | 15 | 212 | 1.6 | 8.0 | 0.00 | 0.00 | 0.00 | 23 | 1015.8 |
| 20260504013605 | 15 | 209 | 1.6 | 8.0 | 0.00 | 0.00 | 0.00 | 23 | 1015.7 |
| 20260504013121 | 15 | 181 | 1.6 | 9.7 | 0.00 | 0.00 | 0.00 | 23 | 1015.9 |
| 20260504012554 | 15 | 244 | 3.2 | 9.7 | 0.00 | 0.00 | 0.00 | 23 | 1015.9 |
| 20260504012052 | 15 | 180 | 1.6 | 9.7 | 0.00 | 0.00 | 0.00 | 23 | 1015.9 |
| 20260504011624 | 15 | 210 | 4.8 | 11.3 | 0.00 | 0.00 | 0.00 | 22 | 1015.9 |
| 20260504011103 | 15 | 163 | 3.2 | 8.0 | 0.00 | 0.00 | 0.00 | 22 | 1016.0 |
| 20260504010629 | 15 | 195 | 3.2 | 8.0 | 0.00 | 0.00 | 0.00 | 22 | 1016.0 |
| 20260504010110 | 15 | 215 | 3.2 | 8.0 | 0.00 | 0.00 | 0.00 | 21 | 1016.0 |
| 20260504005615 | 15 | 252 | 3.2 | 8.0 | 0.00 | 0.00 | 0.00 | 20 | 1016.0 |
| 20260504005110 | 16 | 162 | 3.2 | 12.9 | 0.00 | 0.00 | 0.00 | 21 | 1016.1 |
| 20260504004611 | 16 | 255 | 4.8 | 12.9 | 0.00 | 0.00 | 0.00 | 21 | 1016.0 |
| 20260504004110 | 16 | 157 | 1.6 | 6.4 | 0.00 | 0.00 | 0.00 | 21 | 1016.1 |
| 20260504004041 | 16 | 259 | 0.0 | 11.3 | 0.00 | 0.00 | 0.00 | 22 | 1016.1 |
| 20260504003119 | 16 | 263 | 1.6 | 17.7 | 0.00 | 0.00 | 0.00 | 21 | 1016.2 |
| 20260504002615 | 16 | 271 | 6.4 | 17.7 | 0.00 | 0.00 | 0.00 | 21 | 1016.3 |
| 20260504002102 | 16 | 331 | 4.8 | 12.9 | 0.00 | 0.00 | 0.00 | 21 | 1016.2 |
| 20260504001630 | 16 | 260 | 3.2 | 12.9 | 0.00 | 0.00 | 0.00 | 20 | 1016.3 |
| 20260504001050 | 16 | 220 | 3.2 | 17.7 | 0.00 | 0.00 | 0.00 | 21 | 1016.4 |
| 20260504000610 | 16 | 188 | 3.2 | 12.9 | 0.00 | 0.00 | 0.00 | 22 | 1016.4 |
| 20260504000141 | 16 | 196 | 1.6 | 14.5 | 0.00 | 0.00 | 0.00 | 21 | 1016.5 |
| 20260503235545 | 16 | 319 | 3.2 | 16.1 | 0.00 | 0.00 | 0.00 | 21 | 1016.4 |
| 20260503235132 | 16 | 267 | 3.2 | 16.1 | 0.00 | 0.00 | 0.00 | 21 | 1016.5 |
| 20260503235020 | 16 | 247 | 4.8 | 12.9 | 0.00 | 0.00 | 0.00 | 20 | 1016.5 |
| 20260503234915 | 16 | 261 | 1.6 | 11.3 | 0.00 | 0.00 | 0.00 | 19 | 1016.6 |
| 20260503234815 | 16 | 309 | 3.2 | 11.3 | 0.00 | 0.00 | 0.00 | 19 | 1016.6 |
| 20260503234743 | 16 | 309 | 3.2 | 11.3 | 0.00 | 0.00 | 0.00 | 19 | 1016.6 |
| 20260503233143 | 16 | 264 | 3.2 | 14.5 | 0.00 | 0.00 | 0.00 | 19 | 1016.6 |
| 20260503232550 | 16 | 323 | 4.8 | 22.5 | 0.00 | 0.00 | 0.00 | 19 | 1016.6 |
| 20260503232052 | 16 | 242 | 6.4 | 22.5 | 0.00 | 0.00 | 0.00 | 18 | 1016.6 |
| 20260503231615 | 17 | 184 | 3.2 | 11.3 | 0.00 | 0.00 | 0.00 | 19 | 1016.6 |
| 20260503231105 | 16 | 231 | 1.6 | 11.3 | 0.00 | 0.00 | 0.00 | 22 | 1016.7 |
| 20260503230609 | 16 | 237 | 1.6 | 8.0 | 0.00 | 0.00 | 0.00 | 21 | 1016.8 |
| 20260503230215 | 16 | 181 | 3.2 | 8.0 | 0.00 | 0.00 | 0.00 | 22 | 1016.7 |
| 20260503225550 | 16 | 225 | 3.2 | 9.7 | 0.00 | 0.00 | 0.00 | 22 | 1016.8 |
| 20260503225113 | 16 | 195 | 4.8 | 12.9 | 0.00 | 0.00 | 0.00 | 22 | 1016.9 |
| 20260503224627 | 16 | 194 | 4.8 | 16.1 | 0.00 | 0.00 | 0.00 | 21 | 1016.9 |
| 20260503224050 | 16 | 119 | 8.0 | 19.3 | 0.00 | 0.00 | 0.00 | 23 | 1016.9 |
| 20260503223612 | 16 | 192 | 9.7 | 19.3 | 0.00 | 0.00 | 0.00 | 22 | 1016.9 |
| 20260503223137 | 16 | 232 | 4.8 | 17.7 | 0.00 | 0.00 | 0.00 | 22 | 1017.0 |
| 20260503222602 | 16 | 246 | 4.8 | 17.7 | 0.00 | 0.00 | 0.00 | 21 | 1017.0 |
| 20260503222047 | 16 | 327 | 3.2 | 14.5 | 0.00 | 0.00 | 0.00 | 21 | 1017.1 |
| 20260503221624 | 16 | 282 | 6.4 | 14.5 | 0.00 | 0.00 | 0.00 | 21 | 1017.2 |
| 20260503221110 | 16 | 345 | 3.2 | 9.7 | 0.00 | 0.00 | 0.00 | 23 | 1017.2 |
| 20260503220552 | 16 | 275 | 3.2 | 12.9 | 0.00 | 0.00 | 0.00 | 22 | 1017.4 |
| 20260503220122 | 16 | 288 | 4.8 | 12.9 | 0.00 | 0.00 | 0.00 | 23 | 1017.5 |
| 20260503215615 | 16 | 334 | 4.8 | 17.7 | 0.00 | 0.00 | 0.00 | 22 | 1017.6 |